Location: *
(50.3194°N, 7.1067°E)
Time: 04:20:26
(UTC+00:00)

Cosmos 1825 Rocket - Pass Details

Date: 22 September 2019
Orbit: 603 x 632 km, 82.5° (Epoch: 15 October)

Event Time Altitude Azimuth Distance (km) Brightness Sun altitude
Rises 20:06:37 0° 351° (N) 2,876 7.6 -24.4°
Reaches altitude 10° 20:08:52 10° 355° (N) 1,965 6.6 -24.7°
Enters shadow 20:12:11 48° 18° (NNE) 794 4.1 -25.1°
